(134343) = 1981 EO5

Discovered at Siding Spring on 1981-03-02 by S. J. Bus.

Orbit

Orbit type: Main Belt

Note: WebGL enabled browser required.

epoch2023-09-13.0
epoch JD2460200.5
perihelion date2023-02-15.96117
perihelion JD2459991.46117
argument of perihelion (°)30.41199
ascending node (°)237.65759
inclination (°)5.86760
eccentricity0.0536350
perihelion distance (AU)2.1511806
Tisserand w.r.t. Jupiter3.6
ΔV w.r.t. Earth (km/sec)9.3
semimajor axis (AU)2.2730983
mean anomaly (°)60.11785
mean daily motion (°/day)0.28759180
aphelion distance (AU)2.395
period (years)3.43
P-vector [x]-0.03592652
P-vector [y]-0.93624468
P-vector [z]-0.34950707
Q-vector [x]0.99561508
Q-vector [y]-0.06375797
Q-vector [z]0.06845091
absolute magnitude16.4
phase slope0.15
uncertainty0
referenceMPEC 2024-A34
observations used820
oppositions17
arc length (days)16638
first opposition used1978
last opposition used2023
residual rms (arc-secs)0.74
perturbers coarse indicatorM-v
perturbers precise indicator003Ek
first observation date used1978-06-10.0
last observation date used2023-12-29.0
computer nameMPCLINUX
JD of orbit computation2456612.475835
perihelion JD uncertainty (days)2.2526E-04
argument of perihelion uncertainty (°)8.0827E-05
ascending node uncertainty (°)4.9660E-05
inclination uncertainty (°)5.8122E-06
eccentricity uncertainty 4.1205E-08
perihelion distance uncertainty (AU)9.2397E-08
Minimum Orbit Intersection Distances (in AU)
for orbit epoch: 2460200.5, reference: E2024-A34
Mercury1.68876
Venus1.42636
Earth1.13697
Mars0.61405
Jupiter2.62731
Saturn6.65918
Uranus16.1581
Neptune27.4973

Observations

815 total observations over interval: 1978 06 10.30764 – 2023 12 29.225444
These data are available for download (format description).

Date (UT) J2000 RA J2000 Dec Magn Location Ref
1978 06 10.30764 16 29 01.81 -18 49 24.8   675 – Palomar Mountain MPS 108457
1978 06 10.35972 16 28 58.88 -18 49 08.6   675 – Palomar Mountain MPS 108457
1981 02 09.60577 12 16 25.56 -10 51 34.8   413 – Siding Spring Observatory MPC 9627
1981 02 14.67563 12 15 08.94 -10 54 47.9   413 – Siding Spring Observatory MPC 9627
1981 03 02.52074 12 06 32.05 -10 23 52.3 19.5 V 413 – Siding Spring Observatory MPC 7101
1981 03 07.55280 12 02 34.00 -10 00 55.3   413 – Siding Spring Observatory MPC 7101
1981 03 07.59447 12 02 32.10 -10 00 44.2   413 – Siding Spring Observatory MPC 7101
1981 03 10.53941 12 00 00.55 -09 44 29.8   413 – Siding Spring Observatory MPC 7101
1981 03 10.58108 11 59 58.84 -09 44 18.4   413 – Siding Spring Observatory MPC 7101
1981 03 12.52945 11 58 14.89 -09 32 31.0   413 – Siding Spring Observatory MPC 7101
1981 04 09.63731 11 34 02.89 -05 52 07.5 20.0 V 413 – Siding Spring Observatory MPC 7101
1981 05 03.51150 11 26 16.48 -03 16 10.1   413 – Siding Spring Observatory MPC 10244
2002 06 06.30126 16 36 34.84 -19 11 34.6 18.8   704 – Lincoln Laboratory ETS, New Mexico MPS 90353
2002 06 06.31512 16 36 33.98 -19 11 29.8 19.1   704 – Lincoln Laboratory ETS, New Mexico MPS 90353
2002 06 06.32901 16 36 33.08 -19 11 25.3 19.2   704 – Lincoln Laboratory ETS, New Mexico MPS 90353
2002 06 06.34289 16 36 32.27 -19 11 20.0 19.3   704 – Lincoln Laboratory ETS, New Mexico MPS 90353
2003 10 23.42368 03 24 39.92 +21 05 11.8 20.1 V 691 – Steward Observatory, Kitt Peak-Spacewatch MPS 89191
2003 10 23.45073 03 24 38.51 +21 05 03.2 20.0 V 691 – Steward Observatory, Kitt Peak-Spacewatch MPS 89191
2003 10 23.47842 03 24 37.06 +21 04 54.7 19.9 V 691 – Steward Observatory, Kitt Peak-Spacewatch MPS 89191
2003 10 24.27060 03 23 57.72 +21 00 43.0 19.6   704 – Lincoln Laboratory ETS, New Mexico MPS 89191
2003 10 24.28275 03 23 57.08 +21 00 40.4 19.7   704 – Lincoln Laboratory ETS, New Mexico MPS 89191
2003 10 24.29483 03 23 56.41 +21 00 35.1 20.3   704 – Lincoln Laboratory ETS, New Mexico MPS 89191
2003 10 24.30664 03 23 55.94 +21 00 32.1 20.0   704 – Lincoln Laboratory ETS, New Mexico MPS 89191
2003 10 24.31881 03 23 55.24 +21 00 28.3 19.9   704 – Lincoln Laboratory ETS, New Mexico MPS 89191
2003 10 29.26496 03 19 28.44 +20 32 23.4 19.7   704 – Lincoln Laboratory ETS, New Mexico MPS 89191
2003 10 29.27719 03 19 27.67 +20 32 19.1 19.7   704 – Lincoln Laboratory ETS, New Mexico MPS 89191
2003 10 29.28930 03 19 26.90 +20 32 14.8 19.6   704 – Lincoln Laboratory ETS, New Mexico MPS 89191
2003 10 29.30102 03 19 26.30 +20 32 09.9 19.9   704 – Lincoln Laboratory ETS, New Mexico MPS 89191
2003 10 29.31368 03 19 25.49 +20 32 05.5 19.7   704 – Lincoln Laboratory ETS, New Mexico MPS 89191
2003 10 30.37955 03 18 24.32 +20 25 37.3 20.2   704 – Lincoln Laboratory ETS, New Mexico MPS 89191
2003 10 30.39253 03 18 23.46 +20 25 32.7 19.8   704 – Lincoln Laboratory ETS, New Mexico MPS 89191
2003 10 30.40558 03 18 22.77 +20 25 28.4 20.1   704 – Lincoln Laboratory ETS, New Mexico MPS 89191
2003 11 21.25982 02 56 08.35 +17 54 32.8 19.7   704 – Lincoln Laboratory ETS, New Mexico MPS 91623
2003 11 21.27276 02 56 07.60 +17 54 25.9 19.4   704 – Lincoln Laboratory ETS, New Mexico MPS 91623
2003 11 21.29827 02 56 06.06 +17 54 15.2 19.8   704 – Lincoln Laboratory ETS, New Mexico MPS 91623
2003 11 21.31142 02 56 05.24 +17 54 10.3 19.7   704 – Lincoln Laboratory ETS, New Mexico MPS 91623
2003 12 01.20776 02 47 31.42 +16 47 18.1 19.7   704 – Lincoln Laboratory ETS, New Mexico MPS 92547
2003 12 01.22069 02 47 30.78 +16 47 14.1 19.8   704 – Lincoln Laboratory ETS, New Mexico MPS 92547
2003 12 01.23388 02 47 30.22 +16 47 08.0 20.0   704 – Lincoln Laboratory ETS, New Mexico MPS 92547
2003 12 01.24665 02 47 29.58 +16 47 03.4 19.8   704 – Lincoln Laboratory ETS, New Mexico MPS 92547
2003 12 01.25964 02 47 28.98 +16 46 58.6 19.6   704 – Lincoln Laboratory ETS, New Mexico MPS 92547
2005 03 11.35011 12 02 13.21 -09 54 23.9 19.1 R 699 – Lowell Observatory-LONEOS MPS 128843
2005 03 11.36715 12 02 12.33 -09 54 18.3   699 – Lowell Observatory-LONEOS MPS 128843
2005 03 11.38422 12 02 11.29 -09 54 12.5   699 – Lowell Observatory-LONEOS MPS 128843
2005 03 11.40126 12 02 10.45 -09 54 05.3   699 – Lowell Observatory-LONEOS MPS 128843
2005 03 13.30035 12 00 29.43 -09 42 31.9 18.5   703 – Catalina Sky Survey MPS 128843
2005 03 13.30981 12 00 28.96 -09 42 29.1 18.8   703 – Catalina Sky Survey MPS 128843
2005 03 13.31933 12 00 28.42 -09 42 26.1 18.7   703 – Catalina Sky Survey MPS 128843
2005 03 13.32883 12 00 27.82 -09 42 21.5 18.3   703 – Catalina Sky Survey MPS 128843
2005 04 07.23152 11 38 32.30 -06 27 19.6 19.5 C 704 – Lincoln Laboratory ETS, New Mexico MPS 294187
2005 04 07.25183 11 38 31.29 -06 27 11.3 18.6 C 704 – Lincoln Laboratory ETS, New Mexico MPS 294187
2005 04 07.26162 11 38 30.87 -06 27 05.4 18.9 C 704 – Lincoln Laboratory ETS, New Mexico MPS 294187
2006 08 18.41645 23 23 19.40 +06 44 41.4 19.7 R 644 – Palomar Mountain/NEAT MPS 176771
2006 08 18.42639 23 23 18.99 +06 44 40.1 19.8 R 644 – Palomar Mountain/NEAT MPS 176771
2006 08 18.43905 23 23 18.46 +06 44 38.3 19.1 R 644 – Palomar Mountain/NEAT MPS 176771
2006 08 27.43593 23 16 32.91 +06 12 26.2 18.6 R 699 – Lowell Observatory-LONEOS MPS 176771
2006 08 27.44504 23 16 32.47 +06 12 23.9   699 – Lowell Observatory-LONEOS MPS 176771
2006 08 27.45414 23 16 32.08 +06 12 20.3   699 – Lowell Observatory-LONEOS MPS 176771
2006 08 27.46327 23 16 31.56 +06 12 17.8   699 – Lowell Observatory-LONEOS MPS 176771
2006 08 28.29635 23 15 50.15 +06 08 21.3 18.5   704 – Lincoln Laboratory ETS, New Mexico MPS 176771
2006 08 28.30708 23 15 49.48 +06 08 18.7 18.9   704 – Lincoln Laboratory ETS, New Mexico MPS 176771
2006 08 28.32826 23 15 48.40 +06 08 12.5 18.8   704 – Lincoln Laboratory ETS, New Mexico MPS 176771
2006 08 28.33905 23 15 47.85 +06 08 08.5 18.9   704 – Lincoln Laboratory ETS, New Mexico MPS 176771
2006 09 12.34933 23 02 20.79 +04 34 24.3 18.8 V 703 – Catalina Sky Survey MPS 178999
2006 09 12.35412 23 02 20.58 +04 34 23.0 18.6 V 703 – Catalina Sky Survey MPS 178999
2006 09 12.35891 23 02 20.29 +04 34 20.6 18.8 V 703 – Catalina Sky Survey MPS 178999
2006 09 12.36371 23 02 19.96 +04 34 18.5 18.7 V 703 – Catalina Sky Survey MPS 178999
2006 09 12.96039 23 01 47.90 +04 29 52.4 18.7   224 – Ottmarsheim MPS 178999
2006 09 12.97296 23 01 47.26 +04 29 46.0 17.8   224 – Ottmarsheim MPS 178999
2006 09 12.98553 23 01 46.50 +04 29 41.5 18.8   224 – Ottmarsheim MPS 178999
2006 09 16.34019 22 58 48.12 +04 04 18.8 18.5 R 644 – Palomar Mountain/NEAT MPS 180642
2006 09 16.36925 22 58 46.52 +04 04 05.4 18.8 R 644 – Palomar Mountain/NEAT MPS 180642
2006 09 16.39005 22 58 45.40 +04 03 55.6 18.7 R 644 – Palomar Mountain/NEAT MPS 180642
2006 09 18.16966 22 57 13.96 +03 50 06.9 18.8 V 703 – Catalina Sky Survey MPS 180642
2006 09 18.17809 22 57 13.60 +03 50 03.5 18.6 V 703 – Catalina Sky Survey MPS 180642
2006 09 18.18647 22 57 13.10 +03 50 00.5 18.9 V 703 – Catalina Sky Survey MPS 180642
2006 09 18.19485 22 57 12.60 +03 49 54.5 18.8 V 703 – Catalina Sky Survey MPS 180642
2006 09 20.19704 22 55 32.34 +03 34 12.7 18.8 R 699 – Lowell Observatory-LONEOS MPS 180642
2006 09 20.22447 22 55 30.92 +03 34 00.2   699 – Lowell Observatory-LONEOS MPS 180642
2006 09 20.25187 22 55 29.50 +03 33 47.4   699 – Lowell Observatory-LONEOS MPS 180642
2006 09 20.27931 22 55 28.06 +03 33 34.8   699 – Lowell Observatory-LONEOS MPS 180642
2006 10 10.15182 22 43 27.35 +01 04 41.2 19.2 R 644 – Palomar Mountain/NEAT MPS 183821
2006 10 10.17208 22 43 26.86 +01 04 33.2 19.3 R 644 – Palomar Mountain/NEAT MPS 183821
2006 10 10.19234 22 43 26.42 +01 04 25.2 19.1 R 644 – Palomar Mountain/NEAT MPS 183821
2007 12 18.28995 08 39 12.06 +10 53 25.9   291 – LPL/Spacewatch II MPS 232442
2007 12 18.29372 08 39 11.97 +10 53 25.4   291 – LPL/Spacewatch II MPS 232442
2007 12 18.29756 08 39 11.86 +10 53 24.7   291 – LPL/Spacewatch II MPS 232442
2007 12 18.36323 08 39 10.29 +10 53 14.4 20.0 V G96 – Mt. Lemmon Survey MPS 232442
2007 12 18.36380 08 39 10.26 +10 53 14.5 20.1 V G96 – Mt. Lemmon Survey MPS 232442
2007 12 18.36943 08 39 10.11 +10 53 13.7 19.9 V G96 – Mt. Lemmon Survey MPS 232442
